Regional Weather Roundup
Issued by NWS

Home | Current Version | Previous Version | Text Only | Print | Product List | Glossary On
Versions: 1 2 3 4 5 6 7 8 9 10 11 12 13 14 15 16 17 18 19 20 21 22 23 24 25 26 27 28 29 30 31 32 33 34 35 36 37 38 39 40 41 42 43 44 45 46 47 48 49 50
000
ASUS44 KMEG 120110
RWRTN
TENNESSEE HOURLY STATE WEATHER ROUNDUP
NATIONAL WEATHER SERVICE MEMPHIS TN
700 PM CST MON DEC 11 2017

TNZ002-004-019-021-049-052-054-088>092-120200-
WEST TENNESSEE

CITY           SKY/WX    TMP DP  RH WIND       PRES   REMARKS
MEMPHIS INTL   CLEAR     58  33  39 SW9       29.92R
NWS MEMPHIS      N/A     57 N/A N/A MISG        N/A
JACKSON        CLEAR     56  32  40 SW10      29.89R
DYERSBURG      CLOUDY    57  34  41 W12       29.91R
SOMERVILLE     CLEAR     54  34  47 SW9       29.90R
COVINGTON      CLEAR     55  32  41 SW10      29.90R
UNION CITY     CLEAR     57  32  38 W10G16    29.89R
BOLIVAR        CLEAR     55  32  41 S10       29.90S
PARIS          CLEAR     55  28  35 SW15      29.85R
HUNTINGDON     CLEAR     57  28  33 VRB7      29.86R
LEXINGTON      CLEAR     54  30  40 SW10      29.89R
SELMER         CLEAR     55  28  35 SW6       29.90S
SAVANNAH       CLEAR     55  30  38 SW13      29.91R
$$

TNZ008-025-027-028-033-062-065-066-120200-
NORTH MIDDLE TENNESSEE

CITY           SKY/WX    TMP DP  RH WIND       PRES   REMARKS
NASHVILLE      CLOUDY    55  29  36 SW7       29.87R
PORTLAND       CLEAR     54  32  43 S12G18    29.82F
CLARKSVILLE    CLOUDY    54  28  36 SW10      29.83R
SMYRNA         CLEAR     52  31  44 SW7       29.88R
COOKEVILLE     CLEAR     48  30  49 S8        29.87R
GALLATIN       CLEAR     54  30  40 S5        29.88S
CROSSVILLE     CLOUDY    47  28  47 SW9       29.87F
$$

TNZ061-075-076-078-094-096-097-120200-
SOUTH MIDDLE TENNESSEE

CITY           SKY/WX    TMP DP  RH WIND       PRES   REMARKS
FAYETTEVILLE   CLEAR     50  32  50 S12       29.91F
TULLAHOMA      CLEAR     50  30  46 S7G13     29.89S
WINCHESTER     CLEAR     50  32  50 S6        29.92F
MCMINNVILLE    CLEAR     52  30  43 SW10G17   29.87S
COLUMBIA       CLEAR     54  30  40 SW16      29.86R
SHELBYVILLE    CLEAR     52  30  43 S15G21    29.89S
$$

TNZ017-018-042-046-047-120200-
NORTHEAST TENNESSEE

CITY           SKY/WX    TMP DP  RH WIND       PRES   REMARKS
TRI CITIES     CLEAR     34  29  82 CALM      29.88F
ELIZABETHTON     N/A     32  30  93 CALM      29.90F
$$

TNZ012-013-036-069-073-074-120200-
CENTRAL EAST TENNESSEE

CITY           SKY/WX    TMP DP  RH WIND       PRES   REMARKS
KNOXVILLE      MOCLDY    48  34  58 SW14      29.89F
OAK RIDGE      CLEAR     48  33  56 VRB5      29.91F
DOWNTOWN KNOXV CLEAR     52  32  46 VRB7G13   29.90R
GATLINBURG     CLEAR     39  32  75 CALM      29.88F
MORRISTOWN     CLEAR     46  28  49 SW6       29.88S
JACKSBORO      CLEAR     43  30  61 CALM      29.89F
$$

TNZ083-085-099-120200-
SOUTHEAST TENNESSEE

CITY           SKY/WX    TMP DP  RH WIND       PRES   REMARKS
CHATTANOOGA    CLEAR     50  33  52 SE3       29.96R
DAYTON         MOCLDY    48  36  61 CALM      29.92F
$$

SKY/WX REPORTED AS FAIR MEANS FEW OR NO CLOUDS BELOW
12 THOUSAND FEET.





USA.gov is the U.S. government's official web portal to all federal, state and local government web resources and services.